Flag for Switzerland Weather past 2 weeks in Lancy, Geneva, Switzerland

Now
61 °F

Clear.


Feels Like: 61 °F
Forecast: 56 / 75 °F
Wind: 1 mph from North

Location: Geneva Cointrin Airport

Current Time: Aug 29, 2014 at 3:37:36 AM

Latest Report: Aug 29, 2014 at 2:50 AM


Visibility: 10 mi

Pressure: 30.07 "Hg

Humidity: 88%

Dew point: 57 °F

Location of LancyLocation

Historic Weather in Lancy — Graph

°F

Lancy temperature yesterday

Maximum temperature yesterday: 79 °F (at 3:50 PM)
Minimum temperature yesterday: 54 °F (at 5:50 AM)
Average temperature yesterday: 66 °F

Past Weeks' High & Low Weather Summary

 TemperatureHumidityPressure
High79 °F (Aug 28, 3:50 PM)100% (Aug 14, 2:20 AM)30.21 "Hg (Aug 14, 2:20 AM)
Low46 °F (Aug 17, 4:50 AM)34% (Aug 18, 3:50 PM)29.86 "Hg (Aug 18, 8:20 PM)
Average62 °F72%30.04 "Hg
* Reported Aug 14 2:20 AM — Aug 29 2:20 AM, Lancy, Weather by CustomWeather, © 2014

Note: Actual official high and low records may vary slightly from our data, if they occured in-between our weather recording intervals... More about our weather records

Advertising

Lancy weather history for previous 24 hours

 ConditionsComfort  
Time TempWeatherWind HumidityBarometerVisibility
2:20 AM
Aug 29
61 °FClear.1 mph88%30.07 "Hg10 mi
1:50 AM61 °FClear.3 mph88%30.09 "Hg10 mi
1:20 AM61 °FClear.No wind88%30.09 "Hg10 mi
12:50 AM61 °FClear.1 mph88%30.09 "Hg10 mi
12:20 AM59 °FClear.1 mph94%30.09 "Hg10 mi
11:50 PM
Aug 28
61 °FPassing clouds.1 mph88%30.09 "HgN/A
11:20 PM63 °FPassing clouds.No wind83%30.09 "HgN/A
10:50 PM63 °FClear.1 mph83%30.09 "Hg10 mi
10:20 PM64 °FClear.No wind78%30.09 "Hg10 mi
9:50 PM64 °FClear.3 mph78%30.09 "Hg10 mi
9:20 PM66 °FSunny.1 mph78%30.07 "Hg10 mi
8:50 PM66 °FSunny.1 mph83%30.07 "Hg10 mi
8:20 PM70 °FSunny.1 mph73%30.07 "Hg10 mi
7:50 PM77 °FSunny.1 mph57%30.07 "Hg10 mi
7:20 PM77 °FPassing clouds.1 mph57%30.07 "HgN/A
6:50 PM79 °FPassing clouds.2 mph45%30.07 "HgN/A
6:20 PM79 °FPassing clouds.3 mph45%30.07 "HgN/A
5:50 PM79 °FPassing clouds.2 mph51%30.07 "HgN/A
5:20 PM79 °FPassing clouds.1 mph51%30.04 "HgN/A
4:50 PM77 °FPassing clouds.2 mph51%30.04 "HgN/A
4:20 PM77 °FPassing clouds.5 mph51%30.04 "HgN/A
3:50 PM79 °FPassing clouds.5 mph45%30.07 "HgN/A
3:20 PM77 °FScattered clouds.3 mph51%30.07 "HgN/A
2:50 PM77 °FScattered clouds.3 mph47%30.07 "HgN/A
2:20 PM77 °FScattered clouds.5 mph47%30.07 "HgN/A
1:50 PM75 °FScattered clouds.3 mph54%30.07 "HgN/A
1:20 PM73 °FScattered clouds.3 mph57%30.07 "HgN/A
12:50 PM72 °FScattered clouds.2 mph61%30.07 "HgN/A
12:20 PM72 °FScattered clouds.3 mph61%30.09 "HgN/A
11:50 AM72 °FScattered clouds.3 mph57%30.09 "HgN/A
11:20 AM70 °FScattered clouds.5 mph60%30.09 "HgN/A
10:50 AM70 °FScattered clouds.2 mph64%30.09 "HgN/A
10:20 AM68 °FScattered clouds.1 mph64%30.09 "HgN/A
9:50 AM64 °FPassing clouds.1 mph73%30.09 "HgN/A
9:20 AM64 °FPassing clouds.1 mph73%30.09 "HgN/A
8:50 AM61 °FPassing clouds.1 mph83%30.09 "HgN/A
8:20 AM57 °FSunny.2 mph88%30.09 "Hg10 mi
7:50 AM54 °FSunny.1 mph100%30.09 "Hg10 mi
7:20 AM54 °FClear.1 mph94%30.09 "Hg10 mi
6:50 AM54 °FClear.2 mph100%30.07 "Hg10 mi
6:20 AM54 °FClear.1 mph100%30.07 "Hg10 mi
5:50 AM54 °FClear.1 mph100%30.07 "Hg10 mi
5:20 AM55 °FClear.1 mph100%30.07 "Hg10 mi
4:50 AM55 °FPassing clouds.2 mph94%30.07 "HgN/A
4:20 AM55 °FPassing clouds.2 mph100%30.07 "HgN/A
3:50 AM57 °FPassing clouds.3 mph94%30.07 "HgN/A
Weather by CustomWeather, © 2014

See weather overviewHow to use our weather pages